EW8528 Weather Reports


Display with metric or nautical units.
time (UTC)temp
F
wind
direction
speed
MPH
gust
MPH
rain 1hr
in
rain 24hr
in
rain mn
in
humidity
%
barometer
mb
20190224051336 32 298 0.0 1.0 0.00 0.00 0.00 77 1024.5
20190224050844 32 293 0.0 0.0 0.00 0.00 0.00 79 1024.6
20190224050352 32 293 0.0 0.0 0.00 0.00 0.00 80 1024.5
20190224045851 32 351 0.0 0.0 0.00 0.00 0.00 80 1024.5
20190224045337 32 351 0.0 0.0 0.00 0.00 0.00 80 1024.6
20190224044845 32 351 0.0 0.0 0.00 0.00 0.00 80 1024.8
20190224044337 32 351 0.0 0.0 0.00 0.00 0.00 80 1024.7
20190224043844 32 351 0.0 0.0 0.00 0.00 0.00 80 1024.9
20190224043350 32 351 0.0 0.0 0.00 0.00 0.00 80 1024.9
20190224042837 32 351 0.0 0.0 0.00 0.00 0.00 80 1025.1
20190224042345 32 351 0.0 0.0 0.00 0.00 0.00 80 1025.0
20190224041853 32 351 0.0 0.0 0.00 0.00 0.00 80 1025.0
20190224041339 32 351 0.0 0.0 0.00 0.00 0.00 81 1025.3
20190224040846 32 351 0.0 0.0 0.00 0.00 0.00 81 1025.4
20190224040334 32 351 0.0 0.0 0.00 0.00 0.00 81 1025.7
20190224035842 31 351 0.0 0.0 0.00 0.00 0.00 81 1025.6
20190224035335 32 351 0.0 0.0 0.00 0.00 0.00 81 1025.5
20190224034842 31 351 0.0 0.0 0.00 0.00 0.00 81 1025.6
20190224034351 31 351 0.0 0.0 0.00 0.00 0.00 81 1025.5
20190224033839 31 351 0.0 0.0 0.00 0.00 0.00 81 1025.5
20190224033345 31 351 0.0 0.0 0.00 0.00 0.00 81 1025.6
20190224032852 31 351 0.0 0.0 0.00 0.00 0.00 81 1025.7
20190224032338 31 351 0.0 0.0 0.00 0.00 0.00 81 1025.6
20190224031846 32 351 0.0 0.0 0.00 0.00 0.00 81 1025.7
20190224031334 32 351 0.0 0.0 0.00 0.00 0.00 81 1026.1
20190224030845 31 351 0.0 0.0 0.00 0.00 0.00 81 1026.0
20190224030350 31 351 0.0 0.0 0.00 0.00 0.00 81 1025.8
20190224025838 31 351 0.0 0.0 0.00 0.00 0.00 81 1026.0
20190224025346 31 351 0.0 0.0 0.00 0.00 0.00 81 1025.8
20190224024852 31 351 0.0 0.0 0.00 0.00 0.00 81 1026.0
20190224024340 31 351 0.0 0.0 0.00 0.00 0.00 81 1026.0
20190224023847 31 351 0.0 0.0 0.00 0.00 0.00 81 1025.9
20190224023335 31 351 0.0 0.0 0.00 0.00 0.00 81 1026.0
20190224022840 31 351 0.0 0.0 0.00 0.00 0.00 81 1026.2
20190224022347 31 351 0.0 0.0 0.00 0.00 0.00 81 1026.2
20190224021839 31 351 0.0 0.0 0.00 0.00 0.00 81 1026.1
20190224021347 31 351 0.0 0.0 0.00 0.00 0.00 81 1026.2
20190224020836 31 351 0.0 0.0 0.00 0.00 0.00 81 1026.2
20190224020343 31 351 0.0 0.0 0.00 0.00 0.00 81 1026.1
20190224015850 31 351 0.0 0.0 0.00 0.00 0.00 80 1026.2
20190224015338 31 351 0.0 0.0 0.00 0.00 0.00 80 1026.5
20190224014846 31 351 0.0 0.0 0.00 0.00 0.00 80 1026.6
20190224014353 31 351 0.0 0.0 0.00 0.00 0.00 80 1026.7
20190224013840 31 351 0.0 0.0 0.00 0.00 0.00 80 1026.6
20190224013349 31 351 0.0 0.0 0.00 0.00 0.00 80 1026.5
20190224012837 30 351 0.0 0.0 0.00 0.00 0.00 80 1026.5
20190224012343 30 113 0.0 0.0 0.00 0.00 0.00 80 1026.7
20190224011850 30 113 0.0 0.0 0.00 0.00 0.00 80 1026.7
20190224011338 30 118 0.0 0.0 0.00 0.00 0.00 80 1027.0
20190224010845 30 118 0.0 0.0 0.00 0.00 0.00 79 1027.1
20190224010350 30 118 0.0 0.0 0.00 0.00 0.00 79 1026.9
20190224005854 30 118 0.0 0.0 0.00 0.00 0.00 79 1026.9
20190224005338 30 118 0.0 0.0 0.00 0.00 0.00 78 1026.9
20190224004842 30 118 0.0 0.0 0.00 0.00 0.00 78 1027.0
20190224004351 31 118 0.0 0.0 0.00 0.00 0.00 78 1026.9
20190224003840 31 118 0.0 0.0 0.00 0.00 0.00 78 1027.0
20190224003348 31 118 0.0 0.0 0.00 0.00 0.00 77 1027.1
20190224002835 31 118 0.0 1.0 0.00 0.00 0.00 77 1027.1
20190224002344 31 118 0.0 1.0 0.00 0.00 0.00 77 1027.1
20190224001851 31 89 0.0 0.0 0.00 0.00 0.00 77 1027.3
20190224001337 31 89 0.0 0.0 0.00 0.00 0.00 76 1027.3
20190224000843 32 90 0.0 0.0 0.00 0.00 0.00 76 1027.2
20190224000352 32 90 0.0 0.0 0.00 0.00 0.00 76 1027.2
20190223235843 32 90 0.0 0.0 0.00 0.00 0.00 76 1027.2
20190223235349 32 90 0.0 0.0 0.00 0.00 0.00 75 1027.2
20190223234836 32 89 0.0 0.0 0.00 0.00 0.00 75 1027.2
20190223234344 32 89 0.0 0.0 0.00 0.00 0.00 74 1027.3
20190223233851 32 89 0.0 0.0 0.00 0.00 0.00 73 1027.3
20190223233337 32 89 0.0 0.0 0.00 0.00 0.00 73 1027.2
20190223232843 33 89 0.0 0.0 0.00 0.00 0.00 72 1027.2
20190223232349 33 89 0.0 0.0 0.00 0.00 0.00 71 1027.2
20190223231855 33 89 0.0 0.0 0.00 0.00 0.00 70 1027.3
20190223231337 33 90 0.0 0.0 0.00 0.00 0.00 69 1027.1
20190223230845 34 89 0.0 0.0 0.00 0.00 0.00 68 1027.0
20190223230349 34 89 0.0 0.0 0.00 0.00 0.00 67 1026.9
20190223225854 34 90 0.0 0.0 0.00 0.00 0.00 67 1026.9
20190223225339 34 90 0.0 0.0 0.00 0.00 0.00 66 1027.0
20190223224842 35 236 0.0 0.0 0.00 0.00 0.00 65 1027.1
20190223224346 35 236 0.0 0.0 0.00 0.00 0.00 65 1027.1
20190223223851 35 78 0.0 0.0 0.00 0.00 0.00 64 1027.1
20190223223336 35 78 0.0 1.0 0.00 0.00 0.00 63 1027.0
20190223222842 36 118 0.0 1.0 0.00 0.00 0.00 62 1027.1
20190223222345 36 116 0.0 1.0 0.00 0.00 0.00 61 1027.0
20190223221850 36 91 0.0 1.0 0.00 0.00 0.00 60 1027.2
20190223221339 37 91 0.0 1.0 0.00 0.00 0.00 59 1027.2
20190223220844 37 141 0.0 0.0 0.00 0.00 0.00 58 1027.3
20190223220347 37 144 0.0 0.0 0.00 0.00 0.00 57 1027.3
20190223215852 38 144 0.0 0.0 0.00 0.00 0.00 54 1027.4
20190223215336 38 144 0.0 0.0 0.00 0.00 0.00 53 1027.6
20190223214841 38 128 0.0 1.0 0.00 0.00 0.00 51 1027.8
20190223214346 39 194 0.0 2.0 0.00 0.00 0.00 43 1027.9
20190223213850 39 117 0.0 2.0 0.00 0.00 0.00 43 1028.0
20190223213356 39 143 0.0 2.0 0.00 0.00 0.00 43 1028.1
20190223212840 39 304 0.0 2.0 0.00 0.00 0.00 43 1028.1
20190223212346 39 350 0.0 2.0 0.00 0.00 0.00 44 1028.1
20190223211850 39 58 0.0 1.0 0.00 0.00 0.00 46 1028.1
20190223211355 39 141 0.0 0.0 0.00 0.00 0.00 50 1028.1
20190223210838 39 156 0.0 1.0 0.00 0.00 0.00 52 1028.3
20190223210343 39 122 0.0 3.0 0.00 0.00 0.00 53 1028.2
20190223205845 39 93 1.0 3.0 0.00 0.00 0.00 52 1028.2
20190223205347 40 124 0.0 1.0 0.00 0.00 0.00 50 1028.3
20190223204852 40 128 0.0 1.0 0.00 0.00 0.00 50 1028.3
20190223204337 40 134 0.0 1.0 0.00 0.00 0.00 50 1028.3
20190223203840 40 134 0.0 2.0 0.00 0.00 0.00 49 1028.3
20190223203345 40 143 0.0 2.0 0.00 0.00 0.00 49 1028.4
20190223202853 40 148 0.0 1.0 0.00 0.00 0.00 46 1028.3
20190223202337 40 152 0.0 2.0 0.00 0.00 0.00 47 1028.1
20190223201841 40 199 0.0 2.0 0.00 0.00 0.00 47 1028.1
20190223201345 40 78 0.0 1.0 0.00 0.00 0.00 46 1028.1
20190223200850 40 345 0.0 2.0 0.00 0.00 0.00 41 1028.1
20190223200354 41 140 0.0 2.0 0.00 0.00 0.00 42 1028.1
20190223195837 40 105 0.0 3.0 0.00 0.00 0.00 41 1028.2
20190223195340 40 67 0.0 3.0 0.00 0.00 0.00 42 1028.3
20190223194845 40 340 0.0 3.0 0.00 0.00 0.00 41 1028.3
20190223194350 40 150 0.0 4.0 0.00 0.00 0.00 41 1028.4
20190223193837 40 267 0.0 4.0 0.00 0.00 0.00 42 1028.5
20190223193341 40 233 0.0 3.0 0.00 0.00 0.00 42 1028.6
20190223192846 40 316 1.0 4.0 0.00 0.00 0.00 42 1028.6
20190223192350 40 325 0.0 3.0 0.00 0.00 0.00 43 1028.5
20190223191854 40 318 1.0 3.0 0.00 0.00 0.00 42 1028.7
20190223191339 40 147 1.0 3.0 0.00 0.00 0.00 41 1028.7
20190223190843 40 309 1.0 2.0 0.00 0.00 0.00 44 1028.7
20190223190347 40 211 0.0 2.0 0.00 0.00 0.00 48 1028.7
20190223185851 40 202 0.0 2.0 0.00 0.00 0.00 48 1028.8
20190223185336 40 87 0.0 4.0 0.00 0.00 0.00 44 1028.7
20190223184839 40 243 0.0 4.0 0.00 0.00 0.00 43 1028.8
20190223184345 39 304 1.0 7.0 0.00 0.00 0.00 44 1028.9
20190223183850 40 350 1.0 7.0 0.00 0.00 0.00 44 1028.8
20190223183355 39 127 0.0 4.0 0.00 0.00 0.00 43 1028.8
20190223182839 39 352 2.0 4.0 0.00 0.00 0.00 43 1028.8
20190223182343 39 314 1.0 3.0 0.00 0.00 0.00 43 1028.8
20190223181848 40 304 1.0 2.0 0.00 0.00 0.00 42 1028.8
20190223181353 40 158 0.0 2.0 0.00 0.00 0.00 42 1028.8
20190223180839 40 307 0.0 2.0 0.00 0.00 0.00 42 1029.0
20190223180343 40 272 0.0 4.0 0.00 0.00 0.00 45 1029.1
20190223175847 39 316 1.0 3.0 0.00 0.00 0.00 43 1029.2
20190223175351 39 354 0.0 3.0 0.00 0.00 0.00 44 1029.1
20190223174840 39 124 1.0 3.0 0.00 0.00 0.00 45 1029.1
20190223174344 39 91 1.0 3.0 0.00 0.00 0.00 45 1029.3
20190223173849 39 332 1.0 2.0 0.00 0.00 0.00 45 1029.2
20190223173352 38 326 0.0 4.0 0.00 0.00 0.00 47 1029.3
20190223172837 39 342 2.0 4.0 0.00 0.00 0.00 45 1029.4
20190223172341 39 319 1.0 4.0 0.00 0.00 0.00 45 1029.5
20190223171846 39 152 1.0 4.0 0.00 0.00 0.00 45 1029.8
20190223171351 39 85 0.0 3.0 0.00 0.00 0.00 47 1029.9
20190223170853 38 197 1.0 4.0 0.00 0.00 0.00 47 1030.0
20190223170338 38 322 0.0 4.0 0.00 0.00 0.00 46 1030.2
20190223165846 39 276 0.0 4.0 0.00 0.00 0.00 46 1030.2
20190223165352 39 300 1.0 3.0 0.00 0.00 0.00 46 1030.4
20190223164856 39 105 1.0 2.0 0.00 0.00 0.00 46 1030.4
20190223164338 38 127 1.0 2.0 0.00 0.00 0.00 46 1030.6
20190223163842 38 328 0.0 4.0 0.00 0.00 0.00 45 1030.8
20190223163345 39 184 1.0 4.0 0.00 0.00 0.00 45 1031.0
20190223162850 38 170 1.0 2.0 0.00 0.00 0.00 46 1030.9
20190223162354 38 307 0.0 3.0 0.00 0.00 0.00 48 1031.1
20190223161838 38 320 1.0 3.0 0.00 0.00 0.00 47 1031.2
20190223161343 38 135 2.0 4.0 0.00 0.00 0.00 45 1031.2
20190223160847 39 129 2.0 4.0 0.00 0.00 0.00 46 1031.1
20190223160336 39 123 0.0 2.0 0.00 0.00 0.00 46 1031.1
20190223155841 38 65 0.0 1.0 0.00 0.00 0.00 48 1031.2
20190223155344 37 84 0.0 2.0 0.00 0.00 0.00 47 1031.2
20190223154849 38 337 0.0 1.0 0.00 0.00 0.00 45 1031.2
20190223154352 38 143 0.0 1.0 0.00 0.00 0.00 46 1031.4
20190223153855 37 305 0.0 1.0 0.00 0.00 0.00 48 1031.4
20190223153338 36 306 0.0 2.0 0.00 0.00 0.00 48 1031.5
20190223152843 36 307 1.0 3.0 0.00 0.00 0.00 49 1031.6
20190223152349 35 262 1.0 2.0 0.00 0.00 0.00 50 1031.7
20190223151854 35 324 0.0 3.0 0.00 0.00 0.00 49 1031.8
20190223151342 34 281 1.0 3.0 0.00 0.00 0.00 49 1031.7
20190223150848 34 327 1.0 3.0 0.00 0.00 0.00 50 1031.8
20190223150354 34 332 1.0 3.0 0.00 0.00 0.00 50 1031.8
20190223145836 34 334 2.0 4.0 0.00 0.00 0.00 50 1031.6
20190223145340 33 298 1.0 4.0 0.00 0.00 0.00 51 1031.7
20190223144845 33 293 1.0 4.0 0.00 0.00 0.00 52 1031.7
20190223144350 33 345 2.0 3.0 0.00 0.00 0.00 52 1031.7
20190223143853 33 328 1.0 3.0 0.00 0.00 0.00 53 1031.7
20190223143336 33 333 1.0 3.0 0.00 0.00 0.00 53 1031.8
20190223142841 32 345 2.0 3.0 0.00 0.00 0.00 53 1031.9
20190223142344 32 291 1.0 3.0 0.00 0.00 0.00 54 1032.0
20190223141852 32 337 1.0 3.0 0.00 0.00 0.00 54 1032.0
20190223141338 32 315 1.0 5.0 0.00 0.00 0.00 55 1032.1
20190223140843 31 56 1.0 5.0 0.00 0.00 0.00 55 1032.1
20190223140347 31 308 1.0 4.0 0.00 0.00 0.00 56 1032.0
20190223135851 31 69 1.0 3.0 0.00 0.00 0.00 56 1032.1
20190223135337 30 81 1.0 7.0 0.00 0.00 0.00 57 1032.1
20190223134842 30 338 2.0 7.0 0.00 0.00 0.00 57 1032.1
20190223134345 30 281 1.0 4.0 0.00 0.00 0.00 57 1032.2
20190223133849 30 353 2.0 6.0 0.00 0.00 0.00 58 1032.3
20190223133352 30 349 2.0 6.0 0.00 0.00 0.00 58 1032.4
20190223132839 29 311 1.0 3.0 0.00 0.00 0.00 59 1032.4
20190223132344 29 325 1.0 4.0 0.00 0.00 0.00 59 1032.3
20190223131850 29 319 1.0 5.0 0.00 0.00 0.00 60 1032.3
20190223131355 29 344 2.0 5.0 0.00 0.00 0.00 60 1032.4
20190223130838 28 304 2.0 5.0 0.00 0.00 0.00 60 1032.5
20190223130342 28 293 1.0 6.0 0.00 0.00 0.00 61 1032.6
20190223125847 28 328 2.0 7.0 0.00 0.00 0.00 61 1032.6
20190223125351 28 343 3.0 8.0 0.00 0.00 0.00 61 1032.6
20190223124836 28 321 3.0 8.0 0.00 0.00 0.00 62 1032.6
20190223124341 28 322 4.0 8.0 0.00 0.00 0.00 62 1032.6
20190223123844 27 281 5.0 7.0 0.00 0.00 0.00 62 1032.5
20190223123353 27 323 3.0 5.0 0.00 0.00 0.00 62 1032.4
20190223122839 27 22 3.0 5.0 0.00 0.00 0.00 63 1032.4
20190223122342 27 312 3.0 7.0 0.00 0.00 0.00 63 1032.6
20190223121846 27 356 3.0 7.0 0.00 0.00 0.00 63 1032.6
20190223121351 27 302 2.0 5.0 0.00 0.00 0.00 63 1032.5
20190223120855 27 312 2.0 6.0 0.00 0.00 0.00 64 1032.3
20190223120338 27 357 2.0 6.0 0.00 0.00 0.00 64 1032.3
20190223115843 27 328 2.0 4.0 0.00 0.00 0.00 64 1032.3
20190223115349 27 6 2.0 4.0 0.00 0.00 0.00 64 1032.2
20190223114854 27 326 2.0 5.0 0.00 0.00 0.00 64 1032.2
20190223114343 26 323 1.0 5.0 0.00 0.00 0.00 64 1032.1
20190223113846 26 307 2.0 6.0 0.00 0.00 0.00 64 1032.0
20190223113351 26 312 2.0 4.0 0.00 0.00 0.00 64 1032.0
20190223112854 26 328 2.0 5.0 0.00 0.00 0.00 64 1032.0
20190223112340 26 306 3.0 5.0 0.00 0.00 0.00 65 1031.9
20190223111843 26 346 2.0 4.0 0.00 0.00 0.00 65 1032.0
20190223111347 26 326 1.0 4.0 0.00 0.00 0.00 65 1031.9
20190223110852 26 322 1.0 4.0 0.00 0.00 0.00 65 1032.0
20190223110354 26 321 1.0 3.0 0.00 0.00 0.00 66 1031.9
20190223105838 26 322 0.0 3.0 0.00 0.00 0.00 65 1031.9
20190223105342 26 349 1.0 3.0 0.00 0.00 0.00 66 1031.9
20190223104852 26 332 1.0 2.0 0.00 0.00 0.00 66 1031.9
20190223104337 26 316 0.0 2.0 0.00 0.00 0.00 66 1031.7
20190223103842 26 319 1.0 2.0 0.00 0.00 0.00 67 1031.7
20190223103344 26 314 1.0 2.0 0.00 0.00 0.00 67 1031.5
20190223102850 26 332 1.0 2.0 0.00 0.00 0.00 67 1031.3
20190223102335 25 295 1.0 3.0 0.00 0.00 0.00 69 1031.4
20190223101841 25 335 0.0 3.0 0.00 0.00 0.00 71 1031.4
20190223101344 24 319 0.0 0.0 0.00 0.00 0.00 73 1031.3
20190223100848 23 1 0.0 0.0 0.00 0.00 0.00 73 1031.3
20190223100352 23 1 0.0 0.0 0.00 0.00 0.00 72 1031.2
20190223095841 24 1 0.0 0.0 0.00 0.00 0.00 72 1031.2
20190223095345 24 1 0.0 0.0 0.00 0.00 0.00 72 1031.1
20190223094849 24 1 0.0 0.0 0.00 0.00 0.00 72 1031.0
20190223094353 24 1 0.0 0.0 0.00 0.00 0.00 72 1031.0
20190223093838 24 1 0.0 0.0 0.00 0.00 0.00 73 1031.0
20190223093344 24 1 0.0 0.0 0.00 0.00 0.00 73 1030.9
20190223092846 24 1 0.0 0.0 0.00 0.00 0.00 73 1031.0
20190223092351 24 1 0.0 0.0 0.00 0.00 0.00 72 1031.0
20190223091835 24 1 0.0 0.0 0.00 0.00 0.00 72 1031.1
20190223091439 24 1 0.0 0.0 0.00 0.00 0.00 72 1031.0
20190223090837 24 1 0.0 0.0 0.00 0.00 0.00 72 1030.8
20190223090339 25 1 0.0 0.0 0.00 0.00 0.00 71 1030.9
20190223085845 25 1 0.0 0.0 0.00 0.00 0.00 71 1030.8
20190223085334 25 1 0.0 0.0 0.00 0.00 0.00 71 1030.9
20190223084838 25 1 0.0 0.0 0.00 0.00 0.00 70 1031.0
20190223084342 25 1 0.0 0.0 0.00 0.00 0.00 70 1031.0
20190223083848 25 1 0.0 0.0 0.00 0.00 0.00 70 1030.9
20190223083353 25 1 0.0 0.0 0.00 0.00 0.00 70 1030.8
20190223082837 25 1 0.0 0.0 0.00 0.00 0.00 71 1031.0
20190223082342 25 1 0.0 0.0 0.00 0.00 0.00 70 1031.1
20190223081848 25 1 0.0 0.0 0.00 0.00 0.00 70 1031.0
20190223081333 25 1 0.0 0.0 0.00 0.00 0.00 70 1031.2
20190223080840 25 1 0.0 0.0 0.00 0.00 0.00 70 1031.1
20190223080347 26 1 0.0 0.0 0.00 0.00 0.00 69 1031.2
20190223075850 25 4 0.0 0.0 0.00 0.00 0.00 69 1031.1
20190223075354 26 5 0.0 0.0 0.00 0.00 0.00 68 1031.1
20190223074838 26 6 0.0 0.0 0.00 0.00 0.00 68 1031.1
20190223074343 26 5 0.0 0.0 0.00 0.00 0.00 67 1031.1
20190223073847 26 6 0.0 0.0 0.00 0.00 0.00 67 1031.0
20190223073353 26 6 0.0 0.0 0.00 0.00 0.00 67 1030.8
20190223072837 27 6 0.0 0.0 0.00 0.00 0.00 66 1030.9
20190223072343 27 6 0.0 0.0 0.00 0.00 0.00 66 1030.9
20190223071845 27 6 0.0 0.0 0.00 0.00 0.00 66 1031.0
20190223071334 27 6 0.0 0.0 0.00 0.00 0.00 66 1031.1
20190223070839 27 6 0.0 0.0 0.00 0.00 0.00 65 1031.4
20190223070344 27 6 0.0 0.0 0.00 0.00 0.00 65 1031.4
20190223065846 28 6 0.0 0.0 0.00 0.00 0.00 64 1031.4
20190223065351 28 6 0.0 0.0 0.00 0.00 0.00 64 1031.4
20190223064835 28 6 0.0 0.0 0.00 0.00 0.00 64 1031.2
20190223064339 28 6 0.0 0.0 0.00 0.00 0.00 64 1031.2
20190223063843 28 6 0.0 0.0 0.00 0.00 0.00 63 1031.1
20190223063348 29 6 0.0 0.0 0.00 0.00 0.00 62 1031.0
20190223062853 29 6 0.0 0.0 0.00 0.00 0.00 62 1031.0
20190223062337 29 6 0.0 0.0 0.00 0.00 0.00 62 1031.0
20190223061844 29 6 0.0 0.0 0.00 0.00 0.00 61 1031.0
20190223061348 29 6 0.0 1.0 0.00 0.00 0.00 61 1031.0
20190223060852 30 332 0.0 1.0 0.00 0.00 0.00 61 1030.8
20190223060336 30 359 0.0 1.0 0.00 0.00 0.00 61 1030.8
20190223055840 30 1 0.0 0.0 0.00 0.00 0.00 60 1030.7
20190223055344 30 1 0.0 0.0 0.00 0.00 0.00 60 1030.5
20190223054849 30 1 0.0 1.0 0.00 0.00 0.00 59 1030.5
20190223054334 31 1 0.0 1.0 0.00 0.00 0.00 59 1030.5
20190223053839 31 330 0.0 2.0 0.00 0.00 0.00 59 1030.4
20190223053343 31 330 0.0 2.0 0.00 0.00 0.00 58 1030.2
20190223052848 31 328 1.0 2.0 0.00 0.00 0.00 58 1030.1
20190223052336 31 355 0.0 2.0 0.00 0.00 0.00 59 1030.0
20190223051843 31 2 1.0 3.0 0.00 0.00 0.00 59 1030.0